KYE9525 SLVR-SUMU

Flight info

Callsign KYE9525
Flight time 2h 26m
Altitude 35000
Route PORGO DCT MOMDI UN420 KIMAL/N0501F340 UL793 SIS/N0498F350 UZ120 GEMSU UP526 CRR
Aircraft B744/H-SDE3FGHIM1M2RWXY/LB1

Departure

Time 2026-04-21 21:41
Airport Viru Viru International Airport (SLVR)

Arrival

Time 2026-04-22 00:07
Airport Carrasco General Cesáreo L. Berisso International Airport (SUMU)
Time Latitude Longitude Altitude Speed Heading
2026-04-21 21:14 -17.65259 -63.13507 1257 ft 0 kts 271°
2026-04-21 21:28 -17.65259 -63.13506 1258 ft 1 kts 271°
2026-04-21 21:29 -17.65260 -63.13490 1257 ft 2 kts 273°
2026-04-21 21:29 -17.65261 -63.13474 1257 ft 2 kts 276°
2026-04-21 21:29 -17.65263 -63.13459 1257 ft 2 kts 277°
2026-04-21 21:29 -17.65265 -63.13443 1257 ft 2 kts 277°
2026-04-21 21:30 -17.65264 -63.13427 1257 ft 2 kts 248°
2026-04-21 21:30 -17.65256 -63.13414 1256 ft 2 kts 231°
2026-04-21 21:30 -17.65247 -63.13401 1256 ft 2 kts 235°
2026-04-21 21:30 -17.65239 -63.13388 1256 ft 2 kts 236°
2026-04-21 21:31 -17.65231 -63.13376 1256 ft 2 kts 237°
2026-04-21 21:31 -17.65223 -63.13363 1255 ft 2 kts 237°
2026-04-21 21:31 -17.65215 -63.13350 1255 ft 2 kts 237°
2026-04-21 21:31 -17.65207 -63.13337 1255 ft 2 kts 237°
2026-04-21 21:32 -17.65198 -63.13323 1254 ft 2 kts 237°
2026-04-21 21:32 -17.65190 -63.13311 1254 ft 2 kts 225°
2026-04-21 21:32 -17.65177 -63.13305 1254 ft 2 kts 177°
2026-04-21 21:32 -17.65163 -63.13309 1254 ft 2 kts 143°
2026-04-21 21:33 -17.65151 -63.13319 1254 ft 2 kts 146°
2026-04-21 21:33 -17.65138 -63.13327 1254 ft 2 kts 149°
2026-04-21 21:33 -17.65129 -63.13333 1254 ft 0 kts 148°
2026-04-21 21:35 -17.65132 -63.13332 1254 ft 1 kts 147°
2026-04-21 21:36 -17.65150 -63.13319 1254 ft 4 kts 147°
2026-04-21 21:36 -17.65188 -63.13294 1254 ft 8 kts 147°
2026-04-21 21:36 -17.65251 -63.13251 1254 ft 12 kts 147°
2026-04-21 21:36 -17.65326 -63.13202 1255 ft 13 kts 147°
2026-04-21 21:37 -17.65414 -63.13143 1254 ft 16 kts 147°
2026-04-21 21:37 -17.65514 -63.13075 1255 ft 17 kts 147°
2026-04-21 21:37 -17.65624 -63.13000 1255 ft 19 kts 146°
2026-04-21 21:37 -17.65742 -63.12922 1255 ft 19 kts 148°
2026-04-21 21:38 -17.65844 -63.12853 1256 ft 15 kts 144°
2026-04-21 21:38 -17.65870 -63.12775 1255 ft 10 kts 68°
2026-04-21 21:38 -17.65840 -63.12722 1255 ft 6 kts 56°
2026-04-21 21:38 -17.65822 -63.12693 1254 ft 4 kts 56°
2026-04-21 21:39 -17.65804 -63.12667 1254 ft 3 kts 43°
2026-04-21 21:39 -17.65768 -63.12666 1254 ft 6 kts 328°
2026-04-21 21:39 -17.65760 -63.12672 1254 ft 0 kts 326°
2026-04-21 21:39 -17.65696 -63.12716 1254 ft 34 kts 327°
2026-04-21 21:40 -17.65335 -63.12959 1252 ft 87 kts 327°
2026-04-21 21:40 -17.64680 -63.13400 1250 ft 132 kts 327°
2026-04-21 21:40 -17.63800 -63.13993 1246 ft 169 kts 327°
2026-04-21 21:40 -17.62736 -63.14705 1342 ft 186 kts 328°
2026-04-21 21:41 -17.61645 -63.15434 1689 ft 185 kts 326°
2026-04-21 21:41 -17.60587 -63.16201 1846 ft 190 kts 324°
2026-04-21 21:41 -17.59499 -63.17039 2043 ft 195 kts 322°
2026-04-21 21:41 -17.58606 -63.18127 2256 ft 204 kts 296°
2026-04-21 21:42 -17.58263 -63.19584 2522 ft 209 kts 270°
2026-04-21 21:42 -17.58582 -63.21081 2760 ft 216 kts 245°
2026-04-21 21:42 -17.59516 -63.22327 2970 ft 223 kts 219°
2026-04-21 21:42 -17.60915 -63.23077 3155 ft 231 kts 194°
2026-04-21 21:43 -17.62577 -63.23180 3235 ft 244 kts 169°
2026-04-21 21:43 -17.64200 -63.22573 3374 ft 256 kts 146°
2026-04-21 21:43 -17.65558 -63.21300 3523 ft 266 kts 123°
2026-04-21 21:43 -17.66483 -63.19621 3919 ft 267 kts 115°
2026-04-21 21:44 -17.67343 -63.17909 4367 ft 268 kts 118°
2026-04-21 21:44 -17.68267 -63.16202 4750 ft 271 kts 118°
2026-04-21 21:44 -17.69209 -63.14453 5099 ft 276 kts 118°
2026-04-21 21:44 -17.70169 -63.12668 5395 ft 283 kts 118°
2026-04-21 21:45 -17.71156 -63.10848 5726 ft 288 kts 121°
2026-04-21 21:45 -17.72470 -63.09264 6089 ft 292 kts 141°
2026-04-21 21:45 -17.74228 -63.08199 6481 ft 294 kts 157°
2026-04-21 21:45 -17.76133 -63.07382 6885 ft 296 kts 156°
2026-04-21 21:46 -17.78011 -63.06469 7280 ft 297 kts 153°
2026-04-21 21:46 -17.79898 -63.05494 7670 ft 298 kts 153°
2026-04-21 21:46 -17.81741 -63.04513 8039 ft 299 kts 152°
2026-04-21 21:46 -17.83604 -63.03499 8391 ft 302 kts 152°
2026-04-21 21:47 -17.85474 -63.02462 8701 ft 305 kts 151°
2026-04-21 21:47 -17.87379 -63.01393 9017 ft 308 kts 151°
2026-04-21 21:47 -17.89259 -63.00323 9307 ft 311 kts 151°
2026-04-21 21:47 -17.91177 -62.99224 9640 ft 313 kts 151°
2026-04-21 21:48 -17.93102 -62.98117 9980 ft 314 kts 150°
2026-04-21 21:48 -17.95012 -62.97018 10298 ft 315 kts 150°
2026-04-21 21:48 -17.96942 -62.95901 10550 ft 320 kts 150°
2026-04-21 21:48 -17.98921 -62.94751 10737 ft 327 kts 150°
2026-04-21 21:49 -18.00944 -62.93573 10849 ft 336 kts 150°
2026-04-21 21:49 -18.03013 -62.92368 10959 ft 346 kts 150°
2026-04-21 21:49 -18.05143 -62.91128 11240 ft 348 kts 150°
2026-04-21 21:49 -18.07265 -62.89889 11555 ft 350 kts 150°
2026-04-21 21:50 -18.09410 -62.88630 11881 ft 351 kts 150°
2026-04-21 21:50 -18.11569 -62.87362 12179 ft 354 kts 150°
2026-04-21 21:50 -18.13727 -62.86095 12499 ft 354 kts 150°
2026-04-21 21:50 -18.15934 -62.84862 12777 ft 355 kts 151°
2026-04-21 21:51 -18.18103 -62.83638 13054 ft 358 kts 151°
2026-04-21 21:51 -18.20328 -62.82379 13363 ft 358 kts 151°
2026-04-21 21:51 -18.22523 -62.81138 13645 ft 359 kts 151°
2026-04-21 21:51 -18.24717 -62.79898 13989 ft 359 kts 151°
2026-04-21 21:52 -18.26936 -62.78642 14268 ft 360 kts 151°
2026-04-21 21:52 -18.29133 -62.77396 14577 ft 361 kts 151°
2026-04-21 21:52 -18.31360 -62.76134 14832 ft 363 kts 151°
2026-04-21 21:52 -18.33608 -62.74860 15129 ft 363 kts 151°
2026-04-21 21:53 -18.35820 -62.73606 15412 ft 364 kts 151°
2026-04-21 21:53 -18.38072 -62.72327 15691 ft 365 kts 151°
2026-04-21 21:53 -18.40328 -62.71047 15978 ft 365 kts 151°
2026-04-21 21:53 -18.42573 -62.69775 16253 ft 366 kts 151°
2026-04-21 21:54 -18.44817 -62.68502 16532 ft 366 kts 151°
2026-04-21 21:54 -18.47047 -62.67236 16799 ft 367 kts 151°
2026-04-21 21:54 -18.49314 -62.65947 17009 ft 369 kts 151°
2026-04-21 21:54 -18.51591 -62.64653 17235 ft 371 kts 151°
2026-04-21 21:55 -18.53880 -62.63350 17454 ft 374 kts 151°
2026-04-21 21:55 -18.56180 -62.62042 17685 ft 375 kts 151°
2026-04-21 21:55 -18.58483 -62.60732 17910 ft 376 kts 151°
2026-04-21 21:55 -18.60796 -62.59416 18174 ft 376 kts 151°
2026-04-21 21:56 -18.63085 -62.58114 18437 ft 377 kts 151°
2026-04-21 21:56 -18.65414 -62.56787 18695 ft 377 kts 151°
2026-04-21 21:56 -18.67707 -62.55482 18932 ft 378 kts 152°
2026-04-21 21:56 -18.70043 -62.54154 19151 ft 379 kts 152°
2026-04-21 21:57 -18.72381 -62.52824 19334 ft 381 kts 151°
2026-04-21 21:57 -18.74698 -62.51503 19541 ft 382 kts 151°
2026-04-21 21:57 -18.77054 -62.50156 19765 ft 384 kts 151°
2026-04-21 21:57 -18.79405 -62.48804 19964 ft 385 kts 150°
2026-04-21 21:58 -18.81637 -62.47213 20110 ft 387 kts 139°
2026-04-21 21:58 -18.83614 -62.45324 20320 ft 387 kts 137°
2026-04-21 21:58 -18.85640 -62.43426 20526 ft 388 kts 139°
2026-04-21 21:58 -18.87689 -62.41541 20728 ft 389 kts 139°
2026-04-21 21:59 -18.89732 -62.39646 20921 ft 390 kts 139°
2026-04-21 21:59 -18.91786 -62.37745 21126 ft 391 kts 139°
2026-04-21 21:59 -18.93828 -62.35852 21331 ft 392 kts 139°
2026-04-21 21:59 -18.95880 -62.33952 21534 ft 392 kts 139°
2026-04-21 22:00 -18.97941 -62.32041 21729 ft 393 kts 139°
2026-04-21 22:00 -18.99985 -62.30146 21908 ft 394 kts 139°
2026-04-21 22:00 -19.02060 -62.28223 22076 ft 395 kts 139°
2026-04-21 22:00 -19.04143 -62.26291 22252 ft 397 kts 139°
2026-04-21 22:01 -19.06200 -62.24382 22430 ft 398 kts 139°
2026-04-21 22:01 -19.08289 -62.22443 22606 ft 399 kts 139°
2026-04-21 22:01 -19.10393 -62.20486 22781 ft 400 kts 139°
2026-04-21 22:01 -19.12512 -62.18516 22947 ft 401 kts 139°
2026-04-21 22:02 -19.14595 -62.16579 23099 ft 402 kts 139°
2026-04-21 22:02 -19.16709 -62.14611 23251 ft 404 kts 139°
2026-04-21 22:02 -19.18822 -62.12643 23401 ft 405 kts 139°
2026-04-21 22:02 -19.20946 -62.10666 23558 ft 406 kts 139°
2026-04-21 22:03 -19.23074 -62.08682 23713 ft 408 kts 139°
2026-04-21 22:03 -19.25187 -62.06715 23876 ft 408 kts 139°
2026-04-21 22:03 -19.27332 -62.04721 24043 ft 409 kts 139°
2026-04-21 22:03 -19.29475 -62.02726 24209 ft 410 kts 139°
2026-04-21 22:04 -19.31628 -62.00721 24378 ft 411 kts 139°
2026-04-21 22:04 -19.33785 -61.98708 24540 ft 412 kts 139°
2026-04-21 22:04 -19.35932 -61.96704 24694 ft 413 kts 139°
2026-04-21 22:04 -19.38092 -61.94685 24813 ft 415 kts 139°
2026-04-21 22:05 -19.40268 -61.92652 24940 ft 417 kts 139°
2026-04-21 22:05 -19.42454 -61.90609 25061 ft 418 kts 139°
2026-04-21 22:05 -19.44617 -61.88589 25194 ft 420 kts 139°
2026-04-21 22:05 -19.46813 -61.86535 25330 ft 421 kts 139°
2026-04-21 22:06 -19.49017 -61.84472 25471 ft 422 kts 139°
2026-04-21 22:06 -19.51240 -61.82392 25611 ft 423 kts 139°
2026-04-21 22:06 -19.53438 -61.80343 25755 ft 424 kts 139°
2026-04-21 22:06 -19.55671 -61.78256 25897 ft 425 kts 139°
2026-04-21 22:07 -19.57881 -61.76186 26041 ft 426 kts 139°
2026-04-21 22:07 -19.60106 -61.74096 26181 ft 427 kts 139°
2026-04-21 22:07 -19.62318 -61.72006 26323 ft 427 kts 139°
2026-04-21 22:07 -19.64708 -61.70130 26427 ft 427 kts 149°
2026-04-21 22:08 -19.67244 -61.68480 26563 ft 428 kts 148°
2026-04-21 22:08 -19.69754 -61.66770 26697 ft 429 kts 147°
2026-04-21 22:08 -19.72269 -61.65042 26841 ft 429 kts 148°
2026-04-21 22:08 -19.74808 -61.63302 26963 ft 431 kts 148°
2026-04-21 22:09 -19.77328 -61.61571 27066 ft 432 kts 148°
2026-04-21 22:09 -19.79836 -61.59848 27172 ft 433 kts 148°
2026-04-21 22:09 -19.82385 -61.58096 27280 ft 435 kts 148°
2026-04-21 22:09 -19.84929 -61.56346 27399 ft 436 kts 148°
2026-04-21 22:10 -19.87473 -61.54596 27509 ft 437 kts 148°
2026-04-21 22:10 -19.90037 -61.52829 27625 ft 438 kts 148°
2026-04-21 22:10 -19.92594 -61.51067 27745 ft 439 kts 148°
2026-04-21 22:10 -19.95159 -61.49297 27866 ft 440 kts 148°
2026-04-21 22:11 -19.97737 -61.47520 27997 ft 441 kts 148°
2026-04-21 22:11 -20.00310 -61.45746 28137 ft 441 kts 148°
2026-04-21 22:11 -20.02891 -61.43963 28274 ft 441 kts 148°
2026-04-21 22:11 -20.05472 -61.42181 28397 ft 442 kts 148°
2026-04-21 22:12 -20.08059 -61.40392 28484 ft 443 kts 148°
2026-04-21 22:12 -20.13278 -61.36784 28645 ft 447 kts 148°
2026-04-21 22:13 -20.18517 -61.33156 28867 ft 449 kts 147°
2026-04-21 22:13 -20.21130 -61.31347 28993 ft 450 kts 147°
2026-04-21 22:13 -20.23743 -61.29537 29117 ft 450 kts 148°
2026-04-21 22:13 -20.26398 -61.27697 29244 ft 450 kts 147°
2026-04-21 22:14 -20.29025 -61.25878 29373 ft 451 kts 148°
2026-04-21 22:14 -20.31667 -61.24047 29498 ft 451 kts 147°
2026-04-21 22:14 -20.34299 -61.22222 29618 ft 452 kts 147°
2026-04-21 22:14 -20.36906 -61.20413 29728 ft 452 kts 147°
2026-04-21 22:15 -20.39557 -61.18573 29839 ft 453 kts 147°
2026-04-21 22:15 -20.42222 -61.16721 29945 ft 454 kts 147°
2026-04-21 22:15 -20.44875 -61.14874 30022 ft 455 kts 147°
2026-04-21 22:16 -20.50189 -61.11179 30198 ft 457 kts 147°
2026-04-21 22:16 -20.55532 -61.07458 30386 ft 459 kts 148°
2026-04-21 22:16 -20.58210 -61.05592 30488 ft 460 kts 148°
2026-04-21 22:17 -20.60895 -61.03721 30657 ft 459 kts 148°
2026-04-21 22:17 -20.63595 -61.01841 30807 ft 458 kts 148°
2026-04-21 22:17 -20.66262 -60.99981 30903 ft 459 kts 148°
2026-04-21 22:18 -20.71624 -60.96245 30971 ft 464 kts 148°
2026-04-21 22:18 -20.77079 -60.92437 30982 ft 471 kts 148°
2026-04-21 22:19 -20.82636 -60.88554 30983 ft 478 kts 148°
2026-04-21 22:19 -20.88239 -60.84633 30986 ft 486 kts 148°
2026-04-21 22:20 -20.93960 -60.80628 30979 ft 493 kts 148°
2026-04-21 22:20 -20.99777 -60.76555 30970 ft 502 kts 148°
2026-04-21 22:21 -21.05675 -60.72404 30967 ft 509 kts 149°
2026-04-21 22:21 -21.08824 -60.70599 30943 ft 510 kts 160°
2026-04-21 22:21 -21.12301 -60.69488 30961 ft 510 kts 171°
2026-04-21 22:22 -21.19345 -60.67929 30994 ft 516 kts 169°
2026-04-21 22:22 -21.26494 -60.66188 30975 ft 520 kts 169°
2026-04-21 22:23 -21.33602 -60.64434 30958 ft 523 kts 169°
2026-04-21 22:23 -21.40720 -60.62675 30966 ft 525 kts 169°
2026-04-21 22:24 -21.47908 -60.60891 30960 ft 527 kts 169°
2026-04-21 22:24 -21.55044 -60.59117 30961 ft 530 kts 169°
2026-04-21 22:25 -21.62275 -60.57318 30965 ft 531 kts 169°
2026-04-21 22:25 -21.69563 -60.55503 30961 ft 532 kts 169°
2026-04-21 22:26 -21.76793 -60.53702 30963 ft 533 kts 169°
2026-04-21 22:26 -21.84056 -60.51885 30972 ft 533 kts 169°
2026-04-21 22:27 -21.91351 -60.50063 30972 ft 533 kts 170°
2026-04-21 22:27 -21.98609 -60.48249 30969 ft 534 kts 169°
2026-04-21 22:28 -22.05941 -60.46410 30968 ft 534 kts 170°
2026-04-21 22:28 -22.13259 -60.44582 30966 ft 534 kts 169°
2026-04-21 22:29 -22.20550 -60.42750 30962 ft 534 kts 170°
2026-04-21 22:29 -22.27831 -60.40893 30964 ft 534 kts 169°
2026-04-21 22:30 -22.35102 -60.39033 30961 ft 534 kts 169°
2026-04-21 22:30 -22.42353 -60.37160 30961 ft 534 kts 169°
2026-04-21 22:31 -22.49616 -60.35287 30958 ft 534 kts 169°
2026-04-21 22:31 -22.56916 -60.33395 30955 ft 534 kts 169°
2026-04-21 22:32 -22.64154 -60.31515 30965 ft 534 kts 169°
2026-04-21 22:32 -22.71397 -60.29639 30994 ft 534 kts 169°
2026-04-21 22:33 -22.78675 -60.27752 31117 ft 532 kts 169°
2026-04-21 22:33 -22.85881 -60.25884 31286 ft 530 kts 169°
2026-04-21 22:33 -22.89465 -60.24951 31397 ft 528 kts 169°
2026-04-21 22:34 -22.93038 -60.24020 31520 ft 527 kts 169°
2026-04-21 22:34 -22.96628 -60.23069 31662 ft 525 kts 169°
2026-04-21 22:34 -23.00182 -60.22163 31812 ft 522 kts 171°
2026-04-21 22:34 -23.03725 -60.21277 31973 ft 521 kts 170°
2026-04-21 22:35 -23.07267 -60.20369 32140 ft 519 kts 170°
2026-04-21 22:35 -23.10811 -60.19470 32314 ft 518 kts 170°
2026-04-21 22:35 -23.14372 -60.18564 32488 ft 517 kts 171°
2026-04-21 22:35 -23.17904 -60.17668 32674 ft 516 kts 170°
2026-04-21 22:36 -23.24900 -60.15886 32900 ft 517 kts 171°
2026-04-21 22:36 -23.31984 -60.14074 32945 ft 522 kts 171°
2026-04-21 22:37 -23.39098 -60.12260 32947 ft 526 kts 171°
2026-04-21 22:37 -23.46293 -60.10416 32941 ft 528 kts 171°
2026-04-21 22:38 -23.53505 -60.08568 32935 ft 530 kts 171°
2026-04-21 22:38 -23.60728 -60.06713 32936 ft 531 kts 171°
2026-04-21 22:39 -23.67949 -60.04856 32937 ft 532 kts 171°
2026-04-21 22:39 -23.75187 -60.02993 32933 ft 532 kts 171°
2026-04-21 22:40 -23.82396 -60.01139 32933 ft 533 kts 171°
2026-04-21 22:40 -23.89679 -59.99261 32930 ft 534 kts 171°
2026-04-21 22:41 -23.96924 -59.97400 32938 ft 534 kts 171°
2026-04-21 22:41 -24.04217 -59.95511 32937 ft 535 kts 171°
2026-04-21 22:42 -24.11525 -59.93605 32935 ft 535 kts 172°
2026-04-21 22:42 -24.18820 -59.91755 32930 ft 536 kts 171°
2026-04-21 22:43 -24.26119 -59.89885 32927 ft 536 kts 171°
2026-04-21 22:43 -24.33448 -59.88007 32927 ft 536 kts 171°
2026-04-21 22:44 -24.40692 -59.86145 32938 ft 536 kts 171°
2026-04-21 22:44 -24.48002 -59.84254 32940 ft 536 kts 172°
2026-04-21 22:45 -24.55293 -59.82375 32942 ft 536 kts 172°
2026-04-21 22:45 -24.62573 -59.80499 32950 ft 536 kts 172°
2026-04-21 22:46 -24.69850 -59.78609 32950 ft 536 kts 172°
2026-04-21 22:46 -24.77150 -59.76722 32951 ft 537 kts 172°
2026-04-21 22:47 -24.84456 -59.74829 32954 ft 537 kts 172°
2026-04-21 22:47 -24.91770 -59.72940 32960 ft 537 kts 172°
2026-04-21 22:48 -24.99104 -59.71030 32955 ft 538 kts 172°
2026-04-21 22:48 -25.06385 -59.69089 32958 ft 537 kts 173°
2026-04-21 22:49 -25.13761 -59.67163 32948 ft 538 kts 172°
2026-04-21 22:49 -25.21050 -59.65257 32947 ft 538 kts 172°
2026-04-21 22:50 -25.28383 -59.63311 32947 ft 538 kts 172°
2026-04-21 22:50 -25.35684 -59.61382 32945 ft 538 kts 172°
2026-04-21 22:51 -25.42994 -59.59442 32944 ft 539 kts 172°
2026-04-21 22:51 -25.50331 -59.57495 32946 ft 539 kts 172°
2026-04-21 22:52 -25.57638 -59.55555 32946 ft 539 kts 173°
2026-04-21 22:52 -25.64927 -59.53613 32951 ft 539 kts 173°
2026-04-21 22:53 -25.72274 -59.51657 32963 ft 539 kts 173°
2026-04-21 22:53 -25.79597 -59.49709 32966 ft 539 kts 173°
2026-04-21 22:54 -25.86891 -59.47762 32967 ft 540 kts 173°
2026-04-21 22:54 -25.94242 -59.45791 32968 ft 540 kts 173°
2026-04-21 22:55 -26.01603 -59.43820 32971 ft 540 kts 173°
2026-04-21 22:55 -26.08922 -59.41860 32967 ft 540 kts 173°
2026-04-21 22:56 -26.16318 -59.39869 32964 ft 540 kts 173°
2026-04-21 22:56 -26.23637 -59.37904 32965 ft 540 kts 173°
2026-04-21 22:57 -26.30981 -59.35930 32966 ft 540 kts 173°
2026-04-21 22:57 -26.38346 -59.33940 32938 ft 540 kts 173°
2026-04-21 22:58 -26.45682 -59.31961 32959 ft 538 kts 173°
2026-04-21 22:58 -26.52971 -59.30006 32959 ft 538 kts 173°
2026-04-21 22:59 -26.60280 -59.27972 32967 ft 538 kts 173°
2026-04-21 22:59 -26.67589 -59.26099 32970 ft 537 kts 174°
2026-04-21 23:00 -26.74917 -59.24188 32968 ft 537 kts 174°
2026-04-21 23:00 -26.82197 -59.22277 32969 ft 537 kts 174°
2026-04-21 23:01 -26.89507 -59.20358 32972 ft 537 kts 174°
2026-04-21 23:01 -26.96808 -59.18439 32974 ft 538 kts 174°
2026-04-21 23:02 -27.04162 -59.16504 32973 ft 538 kts 174°
2026-04-21 23:02 -27.11472 -59.14571 32974 ft 537 kts 174°
2026-04-21 23:03 -27.18824 -59.12632 32972 ft 537 kts 174°
2026-04-21 23:03 -27.26145 -59.10694 32977 ft 537 kts 174°
2026-04-21 23:04 -27.33443 -59.08775 32983 ft 536 kts 174°
2026-04-21 23:04 -27.40739 -59.06829 32981 ft 537 kts 174°
2026-04-21 23:05 -27.47918 -59.04253 32963 ft 550 kts 163°
2026-04-21 23:05 -27.54993 -59.00792 32992 ft 548 kts 164°
2026-04-21 23:06 -27.61999 -58.97383 32982 ft 548 kts 164°
2026-04-21 23:06 -27.68995 -58.93979 32981 ft 548 kts 164°
2026-04-21 23:07 -27.76045 -58.90546 32977 ft 548 kts 164°
2026-04-21 23:07 -27.83075 -58.87109 32969 ft 548 kts 164°
2026-04-21 23:08 -27.90077 -58.83682 32972 ft 547 kts 164°
2026-04-21 23:08 -27.97081 -58.80242 32983 ft 547 kts 164°
2026-04-21 23:09 -28.04089 -58.76807 32984 ft 546 kts 164°
2026-04-21 23:09 -28.11121 -58.73337 32992 ft 546 kts 164°
2026-04-21 23:10 -28.18147 -58.69883 32988 ft 546 kts 164°
2026-04-21 23:10 -28.25113 -58.66450 32990 ft 546 kts 164°
2026-04-21 23:11 -28.32058 -58.63020 32986 ft 546 kts 165°
2026-04-21 23:11 -28.39051 -58.59573 32994 ft 546 kts 165°
2026-04-21 23:12 -28.46030 -58.56120 32991 ft 547 kts 165°
2026-04-21 23:12 -28.53024 -58.52679 32994 ft 547 kts 165°
2026-04-21 23:13 -28.60023 -58.49185 32990 ft 548 kts 164°
2026-04-21 23:13 -28.67024 -58.45610 32991 ft 547 kts 165°
2026-04-21 23:14 -28.74004 -58.42167 32996 ft 548 kts 164°
2026-04-21 23:14 -28.81046 -58.38645 32991 ft 549 kts 164°
2026-04-21 23:15 -28.88058 -58.35129 32993 ft 549 kts 164°
2026-04-21 23:15 -28.95098 -58.31583 32974 ft 549 kts 164°
2026-04-21 23:16 -29.02065 -58.28070 32989 ft 548 kts 164°
2026-04-21 23:16 -29.09078 -58.24534 32994 ft 548 kts 164°
2026-04-21 23:17 -29.16178 -58.20950 32992 ft 548 kts 164°
2026-04-21 23:17 -29.23140 -58.17413 32988 ft 548 kts 164°
2026-04-21 23:18 -29.30160 -58.13871 32995 ft 547 kts 165°
2026-04-21 23:18 -29.37117 -58.10339 32994 ft 548 kts 164°
2026-04-21 23:19 -29.44072 -58.06661 32991 ft 549 kts 164°
2026-04-21 23:19 -29.51047 -58.03057 32996 ft 548 kts 164°
2026-04-21 23:20 -29.57979 -57.99402 32989 ft 550 kts 163°
2026-04-21 23:20 -29.64914 -57.95660 32979 ft 547 kts 165°
2026-04-21 23:21 -29.71928 -57.92153 32992 ft 548 kts 164°
2026-04-21 23:21 -29.78895 -57.88608 32986 ft 549 kts 164°
2026-04-21 23:22 -29.85907 -57.85009 32992 ft 549 kts 164°
2026-04-21 23:22 -29.92901 -57.81415 32992 ft 550 kts 164°
2026-04-21 23:23 -29.99917 -57.77796 32994 ft 550 kts 165°
2026-04-21 23:23 -30.06905 -57.74181 32990 ft 550 kts 164°
2026-04-21 23:24 -30.13937 -57.70549 32983 ft 550 kts 165°
2026-04-21 23:24 -30.20983 -57.66927 32997 ft 551 kts 164°
2026-04-21 23:25 -30.27970 -57.63305 32966 ft 544 kts 170°
2026-04-21 23:25 -30.35190 -57.60840 33002 ft 538 kts 172°
2026-04-21 23:26 -30.42337 -57.58294 32999 ft 538 kts 173°
2026-04-21 23:26 -30.49518 -57.55729 32996 ft 538 kts 173°
2026-04-21 23:27 -30.56695 -57.53160 32985 ft 538 kts 173°
2026-04-21 23:27 -30.63859 -57.50581 32991 ft 538 kts 173°
2026-04-21 23:28 -30.71029 -57.48022 32999 ft 538 kts 173°
2026-04-21 23:28 -30.78182 -57.45402 33000 ft 539 kts 172°
2026-04-21 23:29 -30.85330 -57.42816 33003 ft 537 kts 173°
2026-04-21 23:29 -30.92500 -57.40240 32996 ft 538 kts 173°
2026-04-21 23:30 -30.99698 -57.37648 33005 ft 538 kts 173°
2026-04-21 23:30 -31.06809 -57.35073 33004 ft 538 kts 173°
2026-04-21 23:31 -31.14128 -57.32422 32969 ft 536 kts 173°
2026-04-21 23:31 -31.21246 -57.29841 32982 ft 533 kts 173°
2026-04-21 23:32 -31.28355 -57.27252 33004 ft 532 kts 173°
2026-04-21 23:32 -31.35448 -57.24663 32999 ft 532 kts 173°
2026-04-21 23:33 -31.42523 -57.22081 32995 ft 531 kts 173°
2026-04-21 23:33 -31.49613 -57.19495 32999 ft 531 kts 173°
2026-04-21 23:34 -31.56654 -57.16906 33005 ft 530 kts 173°
2026-04-21 23:34 -31.63738 -57.14308 32992 ft 530 kts 173°
2026-04-21 23:35 -31.70787 -57.11736 32998 ft 531 kts 173°
2026-04-21 23:35 -31.77848 -57.09087 33004 ft 531 kts 172°
2026-04-21 23:36 -31.84918 -57.06424 32991 ft 530 kts 173°
2026-04-21 23:36 -31.91957 -57.03748 32991 ft 528 kts 174°
2026-04-21 23:37 -31.98997 -57.01171 33006 ft 529 kts 173°
2026-04-21 23:37 -32.06017 -56.98581 32994 ft 526 kts 173°
2026-04-21 23:38 -32.09486 -56.97284 32975 ft 515 kts 173°
2026-04-21 23:38 -32.12976 -56.95992 32940 ft 508 kts 173°
2026-04-21 23:38 -32.19628 -56.93520 32958 ft 499 kts 173°
2026-04-21 23:39 -32.26302 -56.91037 32988 ft 502 kts 173°
2026-04-21 23:39 -32.33005 -56.88537 33019 ft 508 kts 173°
2026-04-21 23:40 -32.39792 -56.85995 33016 ft 511 kts 173°
2026-04-21 23:40 -32.46557 -56.83481 32993 ft 510 kts 173°
2026-04-21 23:41 -32.53345 -56.80872 33001 ft 508 kts 172°
2026-04-21 23:41 -32.60064 -56.78355 32988 ft 504 kts 173°
2026-04-21 23:42 -32.66726 -56.75859 32999 ft 504 kts 173°
2026-04-21 23:42 -32.73483 -56.73325 32997 ft 508 kts 173°
2026-04-21 23:43 -32.80207 -56.70775 33008 ft 510 kts 173°
2026-04-21 23:43 -32.86984 -56.68216 33001 ft 510 kts 173°
2026-04-21 23:44 -32.93779 -56.65636 32995 ft 509 kts 172°
2026-04-21 23:44 -33.00510 -56.63071 32987 ft 506 kts 173°
2026-04-21 23:45 -33.10608 -56.59244 32983 ft 505 kts 172°
2026-04-21 23:46 -33.17376 -56.56599 32986 ft 508 kts 172°
2026-04-21 23:46 -33.23347 -56.54341 32981 ft 507 kts 173°
2026-04-21 23:47 -33.29255 -56.52110 32845 ft 504 kts 172°
2026-04-21 23:47 -33.31773 -56.51150 32675 ft 499 kts 172°
2026-04-21 23:47 -33.34868 -56.49943 32347 ft 490 kts 172°
2026-04-21 23:47 -33.38119 -56.48797 31842 ft 475 kts 176°
2026-04-21 23:48 -33.41351 -56.47875 31219 ft 468 kts 175°
2026-04-21 23:48 -33.44469 -56.46916 30554 ft 462 kts 174°
2026-04-21 23:48 -33.47567 -56.45970 29888 ft 454 kts 174°
2026-04-21 23:48 -33.50631 -56.45026 29181 ft 448 kts 173°
2026-04-21 23:49 -33.53611 -56.44091 28435 ft 442 kts 173°
2026-04-21 23:49 -33.56601 -56.43119 27681 ft 437 kts 173°
2026-04-21 23:49 -33.59484 -56.42201 26936 ft 431 kts 173°
2026-04-21 23:49 -33.62379 -56.41286 26189 ft 426 kts 173°
2026-04-21 23:50 -33.65222 -56.40382 25442 ft 421 kts 173°
2026-04-21 23:50 -33.68060 -56.39479 24683 ft 416 kts 174°
2026-04-21 23:50 -33.70830 -56.38602 23949 ft 411 kts 174°
2026-04-21 23:50 -33.73572 -56.37741 23206 ft 408 kts 174°
2026-04-21 23:51 -33.76319 -56.36883 22475 ft 404 kts 174°
2026-04-21 23:51 -33.79018 -56.36051 21753 ft 400 kts 174°
2026-04-21 23:51 -33.81712 -56.35213 21020 ft 397 kts 173°
2026-04-21 23:51 -33.84398 -56.34360 20265 ft 394 kts 172°
2026-04-21 23:52 -33.87023 -56.33493 19536 ft 391 kts 171°
2026-04-21 23:52 -33.89633 -56.32573 18807 ft 388 kts 171°
2026-04-21 23:52 -33.92211 -56.31795 18115 ft 382 kts 172°
2026-04-21 23:52 -33.94785 -56.31023 17435 ft 378 kts 171°
2026-04-21 23:53 -33.97303 -56.30235 16774 ft 373 kts 171°
2026-04-21 23:53 -33.99796 -56.29449 16134 ft 368 kts 170°
2026-04-21 23:53 -34.02258 -56.28664 15506 ft 362 kts 170°
2026-04-21 23:53 -34.04665 -56.27897 14889 ft 357 kts 170°
2026-04-21 23:54 -34.07070 -56.27134 14288 ft 353 kts 170°
2026-04-21 23:54 -34.09434 -56.26374 13733 ft 357 kts 169°
2026-04-21 23:54 -34.11863 -56.25601 13191 ft 355 kts 169°
2026-04-21 23:54 -34.14250 -56.24832 12636 ft 350 kts 169°
2026-04-21 23:55 -34.16573 -56.24087 12081 ft 343 kts 169°
2026-04-21 23:55 -34.18864 -56.23352 11532 ft 337 kts 169°
2026-04-21 23:55 -34.21097 -56.22642 11035 ft 329 kts 169°
2026-04-21 23:55 -34.23286 -56.21940 10628 ft 319 kts 169°
2026-04-21 23:56 -34.25389 -56.21259 10331 ft 305 kts 169°
2026-04-21 23:56 -34.27408 -56.20608 10007 ft 293 kts 168°
2026-04-21 23:56 -34.29352 -56.19982 9712 ft 292 kts 168°
2026-04-21 23:56 -34.31352 -56.19329 9480 ft 297 kts 168°
2026-04-21 23:57 -34.33359 -56.18665 9341 ft 298 kts 168°
2026-04-21 23:57 -34.35299 -56.17792 9139 ft 303 kts 152°
2026-04-21 23:57 -34.37049 -56.16341 8901 ft 304 kts 144°
2026-04-21 23:57 -34.38742 -56.14831 8589 ft 298 kts 146°
2026-04-21 23:58 -34.40399 -56.13411 8240 ft 290 kts 146°
2026-04-21 23:58 -34.42045 -56.12000 7897 ft 290 kts 146°
2026-04-21 23:58 -34.43710 -56.10567 7608 ft 294 kts 146°
2026-04-21 23:58 -34.45382 -56.09124 7346 ft 296 kts 145°
2026-04-21 23:59 -34.47049 -56.07685 7063 ft 292 kts 145°
2026-04-21 23:59 -34.48700 -56.06260 6744 ft 285 kts 145°
2026-04-21 23:59 -34.50296 -56.04881 6409 ft 284 kts 145°
2026-04-21 23:59 -34.51915 -56.03487 6111 ft 283 kts 145°
2026-04-22 00:00 -34.53500 -56.02123 5811 ft 277 kts 144°
2026-04-22 00:00 -34.55068 -56.00771 5577 ft 276 kts 144°
2026-04-22 00:00 -34.56656 -55.99396 5451 ft 287 kts 144°
2026-04-22 00:00 -34.58282 -55.97983 5245 ft 291 kts 143°
2026-04-22 00:01 -34.59930 -55.96550 5011 ft 285 kts 143°
2026-04-22 00:01 -34.61518 -55.95167 4801 ft 273 kts 142°
2026-04-22 00:01 -34.63027 -55.93846 4604 ft 262 kts 142°
2026-04-22 00:01 -34.64476 -55.92551 4462 ft 262 kts 141°
2026-04-22 00:02 -34.65953 -55.91223 4435 ft 257 kts 142°
2026-04-22 00:02 -34.67365 -55.89960 4260 ft 247 kts 141°
2026-04-22 00:02 -34.68705 -55.88758 4126 ft 230 kts 141°
2026-04-22 00:02 -34.69935 -55.87655 3942 ft 215 kts 141°
2026-04-22 00:03 -34.71146 -55.86570 3544 ft 215 kts 142°
2026-04-22 00:03 -34.72471 -55.85776 3216 ft 214 kts 168°
2026-04-22 00:03 -34.73940 -55.85757 2944 ft 213 kts 197°
2026-04-22 00:03 -34.75237 -55.86534 2791 ft 200 kts 226°
2026-04-22 00:04 -34.76009 -55.87848 2682 ft 189 kts 255°
2026-04-22 00:04 -34.76245 -55.89357 2463 ft 180 kts 269°
2026-04-22 00:04 -34.76504 -55.90865 2156 ft 183 kts 255°
2026-04-22 00:04 -34.77140 -55.92203 1896 ft 184 kts 238°
2026-04-22 00:05 -34.77926 -55.93422 1638 ft 184 kts 235°
2026-04-22 00:05 -34.78708 -55.94668 1438 ft 182 kts 237°
2026-04-22 00:05 -34.79456 -55.95914 1186 ft 181 kts 235°
2026-04-22 00:05 -34.80188 -55.97126 951 ft 174 kts 235°
2026-04-22 00:06 -34.80916 -55.98307 702 ft 173 kts 234°
2026-04-22 00:06 -34.81628 -55.99488 503 ft 174 kts 233°
2026-04-22 00:06 -34.82350 -56.00657 259 ft 172 kts 233°
2026-04-22 00:06 -34.83061 -56.01810 92 ft 167 kts 232°
2026-04-22 00:07 -34.83656 -56.02785 73 ft 111 kts 232°
2026-04-22 00:07 -34.83982 -56.03314 65 ft 46 kts 233°
2026-04-22 00:07 -34.84055 -56.03435 63 ft 0 kts 234°
2026-04-22 00:07 -34.84097 -56.03505 61 ft 26 kts 233°
2026-04-22 00:08 -34.84206 -56.03667 58 ft 12 kts 196°
2026-04-22 00:08 -34.84241 -56.03601 59 ft 11 kts 76°
2026-04-22 00:08 -34.84199 -56.03501 60 ft 15 kts 62°
2026-04-22 00:08 -34.84139 -56.03363 62 ft 20 kts 62°
2026-04-22 00:09 -34.84070 -56.03204 64 ft 22 kts 62°
2026-04-22 00:09 -34.84011 -56.03027 66 ft 22 kts 88°
2026-04-22 00:09 -34.84011 -56.02856 67 ft 17 kts 90°
2026-04-22 00:09 -34.83981 -56.02729 68 ft 14 kts 57°
2026-04-22 00:10 -34.83948 -56.02619 69 ft 14 kts 83°
2026-04-22 00:10 -34.83945 -56.02495 69 ft 13 kts 90°
2026-04-22 00:10 -34.83925 -56.02451 70 ft 6 kts 342°
2026-04-22 00:10 -34.83887 -56.02457 70 ft 5 kts
2026-04-22 00:11 -34.83868 -56.02456 71 ft 0 kts